Regional Weather Roundup
Issued by NWS

Home | Current Version | Previous Version | Graphics & Text | Print | Product List | Glossary On
Versions: 1 2 3 4 5 6 7 8 9 10 11 12 13 14 15 16 17 18 19 20 21 22 23 24 25 26 27 28 29 30 31 32 33 34 35 36 37 38 39 40 41 42 43 44 45 46 47 48 49 50
000
ASUS43 KLSX 011059
RWRMO

WEATHER SUMMARY FOR MISSOURI
NATIONAL WEATHER SERVICE SPRINGFIELD MO
600 AM CDT SAT AUG 01 2015

NOTE: "FAIR" INDICATES FEW OR NO CLOUDS BELOW 12,000 FEET WITH NO
       SIGNIFICANT WEATHER AND/OR OBSTRUCTIONS TO VISIBILITY.
       CURRENT SKY AND/OR WEATHER CONDITIONS ARE NOT AVAILABLE FOR
       CHILLICOTHE AND FARMINGTON.

MOZ001>031-035>038-043-044-053-054-011200-
...NORTHERN AND WESTERN MISSOURI...

CITY           SKY/WX    TMP DP  RH WIND       PRES   REMARKS
KANSAS CTY INT PTCLDY    69  66  90 S7        30.04S
KANSAS C DTWN  CLEAR     75  68  78 CALM      30.04R
LEE`S SUMMIT   CLEAR     73  69  87 SW6       30.06S
ST JOSEPH      CLEAR     69  68  96 CALM      30.04S
CHILLICOTHE      N/A     69  67  93 CALM      30.05S
KIRKSVILLE     PTCLDY    69  63  81 E3        30.06S

$$
MOZ066>068-077>081-088>096-101>105-011200-
...SOUTHWEST MISSOURI...

CITY           SKY/WX    TMP DP  RH WIND       PRES   REMARKS
SPRINGFIELD    CLEAR     64  59  83 S5        30.08S
JOPLIN         CLEAR     61  58  90 CALM      30.09S

$$
MOZ032>034-039>042-045>050-055>058-069>072-011200-
...CENTRAL MISSOURI...

CITY           SKY/WX    TMP DP  RH WIND       PRES   REMARKS
COLUMBIA       CLEAR     71  67  87 SW3       30.05R
JEFFERSON CITY CLEAR     68  66  93 CALM      30.04S
ROLLA          CLEAR     65  63  93 SW6       30.05F
SEDALIA        CLEAR     70  66  87 SW6       30.06S
WARRENSBURG    CLEAR     68  64  88 S3        30.05S
OSAGE BEACH    CLEAR     64  61  88 CALM      30.06S

$$
MOZ051-052-059>065-011200-
...EAST CENTRAL MISSOURI...

CITY           SKY/WX    TMP DP  RH WIND       PRES   REMARKS
ST LOUIS INTL  PTCLDY    74  67  78 CALM      30.04S
SPIRIT OF STL  CLEAR     68  68 100 CALM      30.03R
ST CHARLES     CLEAR     70  68  93 CALM      30.03R

$$
MOZ072>076-082>087-097>100-106>115-011200-
...SOUTH CENTRAL AND SOUTHEAST MISSOURI...

CITY           SKY/WX    TMP DP  RH WIND       PRES   REMARKS
CAPE GIRARDEAU PTCLDY    66  66 100 CALM      30.02S FOG
FARMINGTON     CLEAR     63  63 100 CALM      30.09S
POPLAR BLUFF   CLEAR     68  66  93 CALM      30.02R
WEST PLAINS    CLEAR     65  60  84 CALM      30.10R

$$


USA.gov is the U.S. government's official web portal to all federal, state and local government web resources and services.